Location: Saint-Palais-sur-Mer
(45.6429°N, 1.0859°W)
Time: 15:08:15
(UTC+01:00)

S-56A Canister/Altair - Pass Details

Date: 17 February 2026
Orbit: 633 x 2484 km, 38.9° (Epoch: 16 March)

Event Time Altitude Azimuth Distance (km) Brightness Sun altitude
Exits shadow 06:25:23 22° 252° (WSW) 3,167 10.1 -17.8°
Maximum altitude 06:30:50 33° 208° (SSW) 2,925 10.2 -16.8°
Drops below altitude 10° 06:42:12 10° 153° (SSE) 4,937 12.0 -14.8°
Sets 06:46:55 0° 145° (SE) 6,076 12.7 -14.0°
